This is the latest recevied weather packets stored in our database for station/object WB4YDL. If no packets are shown the sender has not sent any weather packets the latest 1 day(s).
| Time | Temp. | Humidity | Pressure | Rain* | Wind** | Luminosity | Snow |
|---|---|---|---|---|---|---|---|
| 1778040157 | 11.67° C | 99% | 1003.8 hPa | 6.1 mm | - | 0 W/m² | - |
| 1778039853 | 11.67° C | 99% | 1004.1 hPa | 1.27 mm | - | 0 W/m² | - |
| 1778039550 | 11.67° C | 99% | 1003.8 hPa | 0 mm | - | 0 W/m² | - |
| 1778039247 | 11.67° C | 99% | 1003.9 hPa | 0 mm | - | 0 W/m² | - |
| 1778038944 | 11.67° C | 99% | 1003.4 hPa | 0 mm | - | 0 W/m² | - |
| 1778038338 | 11.67° C | 99% | 1003.1 hPa | 0 mm | - | 0 W/m² | - |
| 1778037429 | 12.22° C | 99% | 1003.1 hPa | 0 mm | - | 0 W/m² | - |
| 1778036218 | 12.78° C | 99% | 1002.8 hPa | 1.78 mm | - | 0 W/m² | - |
| 1778035914 | 13.33° C | 99% | 1002.7 hPa | 3.05 mm | - | 0 W/m² | - |
| 1778035606 | 13.89° C | 99% | 1002.5 hPa | 6.1 mm | - | 0 W/m² | - |
| 1778034696 | 15.56° C | 99% | 1001.6 hPa | 9.65 mm | - | 0 W/m² | - |
| 1778034393 | 17.22° C | 99% | 1001.6 hPa | 4.83 mm | - | 0 W/m² | - |
| 1778033485 | 17.78° C | 99% | 1000.7 hPa | 0 mm | - | 0 W/m² | - |
| 1778033182 | 17.78° C | 99% | 1000.9 hPa | 0 mm | - | 0 W/m² | - |
| 1778032577 | 17.78° C | 99% | 1001 hPa | 0 mm | - | 0 W/m² | - |
| 1778032274 | 17.78° C | 99% | 1000.8 hPa | 0 mm | - | 0 W/m² | - |
| 1778031972 | 17.78° C | 99% | 1000.7 hPa | 0 mm | - | 0 W/m² | - |
| 1778031667 | 17.78° C | 99% | 1000.9 hPa | 1.78 mm | - | 0 W/m² | - |
| 1778031366 | 17.78° C | 99% | 1000.9 hPa | 1.78 mm | - | 0 W/m² | - |
| 1778030758 | 17.78° C | 99% | 1000.8 hPa | 0 mm | - | 0 W/m² | - |
| 1778030455 | 17.78° C | 99% | 1000.7 hPa | 0 mm | - | 0 W/m² | - |
| 1778030153 | 17.78° C | 99% | 1000.5 hPa | 0 mm | - | 0 W/m² | - |
| 1778029849 | 17.78° C | 99% | 1000.9 hPa | 0 mm | - | 0 W/m² | - |
| 1778029548 | 17.78° C | 99% | 1000.9 hPa | 1.27 mm | - | 0 W/m² | - |
| 1778028942 | 17.78° C | 99% | 1000.7 hPa | 0 mm | - | 0 W/m² | - |
* Rain latest hour (hover to see other rain measurements)
** Current wind speed in m/s (hover to see current wind gust speed)